SWA3186 KMCO-KPVD

Flight info

Callsign SWA3186
Flight time 2h 9m
Altitude 37000
Route FATHE3 VIYAP Q87 JROSS JOHAR Q109 DFENC SAWED Q97 ZJAAY Q167 ORCHA JORDN JORDN2
Aircraft B737/M-SDE2E3FGHIRWXY/LB1

Departure

Time 2026-05-07 19:45
Airport Orlando International Airport (KMCO)

Arrival

Time 2026-05-07 21:54
Airport Rhode Island T. F. Green International Airport (KPVD)
Time Latitude Longitude Altitude Speed Heading
2026-05-07 19:24 28.43379 -81.30093 94 ft 0 kts 45°
2026-05-07 19:36 28.43366 -81.30108 94 ft 3 kts 49°
2026-05-07 19:36 28.43355 -81.30123 95 ft 1 kts 37°
2026-05-07 19:37 28.43344 -81.30129 93 ft 2 kts
2026-05-07 19:37 28.43330 -81.30131 93 ft 2 kts 22°
2026-05-07 19:37 28.43321 -81.30136 95 ft 1 kts 53°
2026-05-07 19:37 28.43317 -81.30145 93 ft 1 kts 87°
2026-05-07 19:38 28.43318 -81.30155 95 ft 1 kts 107°
2026-05-07 19:38 28.43321 -81.30164 95 ft 1 kts 117°
2026-05-07 19:38 28.43325 -81.30172 94 ft 1 kts 123°
2026-05-07 19:38 28.43325 -81.30173 94 ft 0 kts 123°
2026-05-07 19:42 28.43316 -81.30156 94 ft 8 kts 122°
2026-05-07 19:42 28.43287 -81.30098 94 ft 9 kts 110°
2026-05-07 19:42 28.43280 -81.30020 94 ft 13 kts 79°
2026-05-07 19:42 28.43317 -81.29908 94 ft 15 kts 71°
2026-05-07 19:43 28.43339 -81.29796 95 ft 14 kts 91°
2026-05-07 19:43 28.43375 -81.29710 95 ft 13 kts 12°
2026-05-07 19:43 28.43466 -81.29713 94 ft 13 kts 358°
2026-05-07 19:43 28.43546 -81.29687 96 ft 13 kts 58°
2026-05-07 19:44 28.43536 -81.29596 96 ft 12 kts 143°
2026-05-07 19:44 28.43286 -81.29585 98 ft 70 kts 180°
2026-05-07 19:44 28.42562 -81.29577 94 ft 135 kts 180°
2026-05-07 19:44 28.41482 -81.29553 332 ft 163 kts 184°
2026-05-07 19:45 28.40352 -81.29562 1032 ft 168 kts 185°
2026-05-07 19:45 28.39155 -81.29571 1703 ft 176 kts 184°
2026-05-07 19:45 28.37844 -81.29351 1941 ft 206 kts 165°
2026-05-07 19:45 28.36533 -81.28414 2137 ft 239 kts 143°
2026-05-07 19:46 28.35208 -81.27190 2504 ft 251 kts 144°
2026-05-07 19:46 28.33801 -81.25865 2850 ft 274 kts 141°
2026-05-07 19:46 28.32474 -81.24314 3753 ft 275 kts 126°
2026-05-07 19:46 28.31792 -81.22292 4714 ft 280 kts 98°
2026-05-07 19:47 28.31967 -81.20077 5522 ft 287 kts 71°
2026-05-07 19:47 28.32754 -81.17989 6405 ft 290 kts 64°
2026-05-07 19:47 28.33654 -81.15904 7138 ft 298 kts 63°
2026-05-07 19:47 28.34598 -81.13801 7677 ft 298 kts 60°
2026-05-07 19:48 28.35928 -81.12033 7960 ft 296 kts 32°
2026-05-07 19:48 28.37839 -81.11323 8351 ft 296 kts 355°
2026-05-07 19:48 28.39791 -81.11920 9249 ft 287 kts 327°
2026-05-07 19:48 28.41610 -81.12896 10090 ft 294 kts 335°
2026-05-07 19:49 28.43589 -81.13710 10509 ft 315 kts 337°
2026-05-07 19:49 28.45755 -81.14541 10732 ft 342 kts 338°
2026-05-07 19:49 28.48065 -81.15397 11221 ft 354 kts 338°
2026-05-07 19:49 28.50431 -81.16264 11990 ft 358 kts 338°
2026-05-07 19:50 28.52807 -81.17136 12832 ft 360 kts 338°
2026-05-07 19:50 28.55204 -81.18025 13662 ft 363 kts 338°
2026-05-07 19:50 28.57619 -81.18924 14363 ft 367 kts 338°
2026-05-07 19:50 28.60050 -81.19829 15151 ft 368 kts 337°
2026-05-07 19:51 28.62489 -81.20739 15970 ft 369 kts 337°
2026-05-07 19:51 28.64893 -81.21638 16770 ft 370 kts 337°
2026-05-07 19:51 28.67347 -81.22557 17526 ft 372 kts 337°
2026-05-07 19:51 28.69814 -81.23482 18299 ft 374 kts 337°
2026-05-07 19:52 28.72295 -81.24413 18936 ft 377 kts 336°
2026-05-07 19:52 28.74799 -81.25354 19492 ft 382 kts 336°
2026-05-07 19:52 28.77335 -81.26307 20053 ft 386 kts 336°
2026-05-07 19:52 28.79894 -81.27268 20628 ft 389 kts 336°
2026-05-07 19:53 28.82481 -81.28238 21185 ft 393 kts 337°
2026-05-07 19:53 28.85176 -81.28983 21647 ft 405 kts 346°
2026-05-07 19:53 28.88017 -81.29276 22175 ft 412 kts 350°
2026-05-07 19:53 28.90890 -81.29475 22686 ft 416 kts 350°
2026-05-07 19:54 28.93793 -81.29680 23188 ft 419 kts 350°
2026-05-07 19:54 28.96713 -81.29913 23672 ft 423 kts 349°
2026-05-07 19:54 28.99655 -81.30166 24081 ft 425 kts 348°
2026-05-07 19:54 29.02602 -81.30480 24513 ft 426 kts 347°
2026-05-07 19:55 29.05555 -81.30824 24932 ft 428 kts 347°
2026-05-07 19:55 29.08532 -81.31169 25329 ft 431 kts 347°
2026-05-07 19:55 29.11527 -81.31500 25717 ft 434 kts 348°
2026-05-07 19:55 29.14557 -81.31740 26096 ft 439 kts 350°
2026-05-07 19:56 29.17612 -81.31914 26492 ft 441 kts 350°
2026-05-07 19:56 29.20690 -81.32069 26870 ft 444 kts 350°
2026-05-07 19:56 29.23785 -81.32227 27241 ft 446 kts 350°
2026-05-07 19:56 29.25881 -81.32339 27508 ft 448 kts 349°
2026-05-07 19:57 29.28967 -81.32512 27821 ft 451 kts 349°
2026-05-07 19:57 29.32108 -81.32696 28151 ft 453 kts 349°
2026-05-07 19:57 29.35262 -81.32884 28487 ft 456 kts 349°
2026-05-07 19:57 29.38437 -81.33076 28818 ft 458 kts 349°
2026-05-07 19:58 29.41623 -81.33269 29129 ft 460 kts 349°
2026-05-07 19:58 29.44830 -81.33463 29426 ft 462 kts 349°
2026-05-07 19:58 29.48051 -81.33657 29725 ft 465 kts 349°
2026-05-07 19:58 29.51288 -81.33853 30017 ft 467 kts 349°
2026-05-07 19:59 29.54538 -81.34048 30325 ft 469 kts 349°
2026-05-07 19:59 29.57804 -81.34245 30579 ft 470 kts 348°
2026-05-07 19:59 29.61070 -81.34441 30888 ft 470 kts 348°
2026-05-07 19:59 29.64329 -81.34637 31306 ft 467 kts 348°
2026-05-07 20:00 29.67560 -81.34824 31756 ft 464 kts 348°
2026-05-07 20:00 29.70782 -81.35007 32180 ft 462 kts 349°
2026-05-07 20:00 29.73989 -81.35188 32563 ft 461 kts 349°
2026-05-07 20:00 29.77190 -81.35371 32962 ft 460 kts 348°
2026-05-07 20:01 29.80380 -81.35552 33401 ft 458 kts 348°
2026-05-07 20:01 29.83555 -81.35734 33876 ft 456 kts 348°
2026-05-07 20:01 29.86704 -81.35912 34370 ft 450 kts 348°
2026-05-07 20:01 29.89821 -81.36090 34754 ft 448 kts 348°
2026-05-07 20:02 29.92939 -81.36270 35012 ft 449 kts 348°
2026-05-07 20:02 29.96058 -81.36453 35250 ft 450 kts 348°
2026-05-07 20:02 29.99180 -81.36635 35537 ft 449 kts 348°
2026-05-07 20:02 30.02293 -81.36814 35875 ft 447 kts 348°
2026-05-07 20:03 30.05393 -81.36992 36199 ft 445 kts 348°
2026-05-07 20:03 30.08480 -81.37170 36463 ft 445 kts 348°
2026-05-07 20:03 30.11574 -81.37349 36740 ft 445 kts 348°
2026-05-07 20:03 30.14668 -81.37529 36919 ft 447 kts 349°
2026-05-07 20:04 30.20896 -81.37892 37005 ft 448 kts 349°
2026-05-07 20:04 30.27105 -81.38249 36991 ft 446 kts 349°
2026-05-07 20:05 30.33253 -81.38604 36981 ft 444 kts 348°
2026-05-07 20:05 30.39420 -81.38963 36981 ft 443 kts 348°
2026-05-07 20:06 30.45572 -81.39321 36983 ft 442 kts 348°
2026-05-07 20:06 30.51729 -81.39657 36996 ft 443 kts 349°
2026-05-07 20:07 30.57894 -81.39978 36992 ft 444 kts 349°
2026-05-07 20:07 30.64071 -81.40302 36993 ft 445 kts 349°
2026-05-07 20:08 30.70269 -81.40630 36997 ft 447 kts 349°
2026-05-07 20:08 30.76494 -81.40961 37000 ft 449 kts 349°
2026-05-07 20:09 30.82744 -81.41293 36999 ft 450 kts 349°
2026-05-07 20:10 30.92150 -81.41793 36986 ft 452 kts 349°
2026-05-07 20:10 30.98439 -81.42128 36948 ft 453 kts 349°
2026-05-07 20:11 31.04738 -81.42464 36923 ft 453 kts 349°
2026-05-07 20:11 31.11038 -81.42801 36916 ft 453 kts 349°
2026-05-07 20:12 31.17344 -81.43138 36916 ft 453 kts 349°
2026-05-07 20:12 31.23671 -81.43193 36974 ft 463 kts 359°
2026-05-07 20:13 31.29957 -81.41205 36948 ft 482 kts 16°
2026-05-07 20:13 31.36047 -81.37861 36948 ft 484 kts 18°
2026-05-07 20:14 31.42113 -81.34442 36948 ft 483 kts 18°
2026-05-07 20:14 31.48193 -81.31103 36942 ft 482 kts 17°
2026-05-07 20:15 31.54285 -81.27794 36940 ft 483 kts 17°
2026-05-07 20:15 31.60383 -81.24477 36935 ft 483 kts 17°
2026-05-07 20:16 31.66479 -81.21151 36923 ft 484 kts 17°
2026-05-07 20:16 31.72587 -81.17814 36911 ft 484 kts 17°
2026-05-07 20:17 31.78701 -81.14470 36917 ft 485 kts 17°
2026-05-07 20:17 31.84826 -81.11113 36908 ft 486 kts 17°
2026-05-07 20:18 31.90966 -81.07742 36901 ft 487 kts 17°
2026-05-07 20:18 31.97116 -81.04362 36898 ft 488 kts 17°
2026-05-07 20:19 32.03269 -81.00963 36933 ft 489 kts 17°
2026-05-07 20:19 32.09433 -80.97516 36909 ft 491 kts 17°
2026-05-07 20:20 32.15614 -80.94047 36926 ft 493 kts 17°
2026-05-07 20:20 32.21773 -80.90590 36926 ft 494 kts 17°
2026-05-07 20:21 32.27971 -80.87106 36930 ft 493 kts 17°
2026-05-07 20:21 32.34163 -80.83622 36936 ft 493 kts 16°
2026-05-07 20:22 32.40360 -80.80132 36925 ft 493 kts 16°
2026-05-07 20:22 32.46554 -80.76637 36927 ft 493 kts 16°
2026-05-07 20:23 32.52748 -80.73135 36923 ft 493 kts 16°
2026-05-07 20:23 32.58949 -80.69625 36930 ft 494 kts 16°
2026-05-07 20:24 32.65153 -80.66107 36916 ft 494 kts 15°
2026-05-07 20:24 32.71271 -80.62276 36887 ft 507 kts 26°
2026-05-07 20:25 32.76677 -80.56701 36906 ft 519 kts 37°
2026-05-07 20:25 32.81824 -80.50659 36910 ft 521 kts 37°
2026-05-07 20:26 32.86994 -80.44600 36904 ft 522 kts 37°
2026-05-07 20:26 32.92206 -80.38580 36895 ft 522 kts 37°
2026-05-07 20:27 32.97439 -80.32572 36904 ft 522 kts 37°
2026-05-07 20:27 33.02670 -80.26561 36897 ft 522 kts 37°
2026-05-07 20:28 33.07892 -80.20544 36888 ft 522 kts 37°
2026-05-07 20:28 33.13106 -80.14522 36891 ft 521 kts 37°
2026-05-07 20:29 33.18308 -80.08502 36895 ft 520 kts 37°
2026-05-07 20:29 33.23499 -80.02485 36895 ft 520 kts 37°
2026-05-07 20:30 33.28679 -79.96470 36923 ft 519 kts 37°
2026-05-07 20:30 33.33861 -79.90445 36902 ft 520 kts 37°
2026-05-07 20:31 33.39047 -79.84405 36889 ft 521 kts 37°
2026-05-07 20:31 33.44202 -79.78388 36868 ft 521 kts 37°
2026-05-07 20:32 33.49390 -79.72321 36868 ft 521 kts 37°
2026-05-07 20:32 33.54585 -79.66237 36897 ft 524 kts 37°
2026-05-07 20:33 33.59802 -79.60118 36885 ft 526 kts 37°
2026-05-07 20:33 33.65035 -79.53967 36886 ft 527 kts 37°
2026-05-07 20:34 33.70270 -79.47800 36901 ft 528 kts 37°
2026-05-07 20:34 33.75521 -79.41606 36852 ft 529 kts 37°
2026-05-07 20:35 33.80772 -79.35399 36868 ft 530 kts 37°
2026-05-07 20:35 33.86029 -79.29174 36860 ft 530 kts 37°
2026-05-07 20:36 33.91281 -79.22944 36858 ft 530 kts 37°
2026-05-07 20:36 33.96534 -79.16701 36858 ft 531 kts 37°
2026-05-07 20:37 34.01784 -79.10452 36871 ft 531 kts 36°
2026-05-07 20:37 34.07044 -79.04179 36874 ft 532 kts 37°
2026-05-07 20:38 34.12315 -78.97882 36860 ft 534 kts 37°
2026-05-07 20:38 34.17584 -78.91572 36855 ft 533 kts 37°
2026-05-07 20:39 34.22839 -78.85266 36910 ft 532 kts 36°
2026-05-07 20:39 34.28102 -78.78943 36871 ft 534 kts 36°
2026-05-07 20:40 34.33368 -78.72605 36844 ft 534 kts 36°
2026-05-07 20:40 34.38602 -78.66293 36832 ft 535 kts 37°
2026-05-07 20:41 34.43865 -78.59932 36846 ft 535 kts 37°
2026-05-07 20:41 34.49134 -78.53552 36836 ft 536 kts 36°
2026-05-07 20:42 34.54404 -78.47161 36843 ft 536 kts 36°
2026-05-07 20:42 34.59679 -78.40749 36837 ft 537 kts 36°
2026-05-07 20:43 34.64961 -78.34317 36837 ft 537 kts 37°
2026-05-07 20:43 34.70231 -78.27887 36856 ft 538 kts 36°
2026-05-07 20:44 34.75509 -78.21435 36843 ft 538 kts 36°
2026-05-07 20:44 34.80781 -78.14977 36831 ft 538 kts 36°
2026-05-07 20:45 34.85180 -78.09613 36833 ft 536 kts 34°
2026-05-07 20:45 34.90838 -78.03888 36823 ft 526 kts 27°
2026-05-07 20:46 34.96670 -77.98492 36834 ft 528 kts 26°
2026-05-07 20:46 35.02505 -77.93041 36836 ft 529 kts 27°
2026-05-07 20:47 35.08312 -77.87502 36836 ft 530 kts 27°
2026-05-07 20:47 35.14106 -77.81922 36901 ft 531 kts 27°
2026-05-07 20:48 35.19914 -77.76321 36849 ft 532 kts 27°
2026-05-07 20:48 35.25730 -77.70708 36828 ft 533 kts 27°
2026-05-07 20:49 35.31549 -77.65084 36830 ft 533 kts 27°
2026-05-07 20:49 35.37363 -77.59455 36816 ft 533 kts 27°
2026-05-07 20:50 35.43177 -77.53813 36835 ft 532 kts 27°
2026-05-07 20:50 35.48978 -77.48175 36868 ft 532 kts 27°
2026-05-07 20:51 35.54744 -77.42560 36861 ft 532 kts 28°
2026-05-07 20:51 35.60535 -77.36910 36894 ft 532 kts 27°
2026-05-07 20:52 35.66342 -77.31236 36869 ft 533 kts 27°
2026-05-07 20:52 35.72151 -77.25546 36865 ft 533 kts 27°
2026-05-07 20:53 35.77951 -77.19853 36860 ft 533 kts 27°
2026-05-07 20:53 35.83742 -77.14158 36882 ft 533 kts 27°
2026-05-07 20:54 35.89539 -77.08449 36898 ft 533 kts 27°
2026-05-07 20:54 35.95507 -77.03195 36896 ft 519 kts 19°
2026-05-07 20:55 36.01713 -76.98740 36881 ft 515 kts 17°
2026-05-07 20:55 36.07959 -76.94348 36898 ft 518 kts 17°
2026-05-07 20:56 36.14211 -76.89850 36910 ft 521 kts 18°
2026-05-07 20:56 36.20464 -76.85273 36878 ft 523 kts 18°
2026-05-07 20:57 36.26717 -76.80670 36930 ft 524 kts 18°
2026-05-07 20:57 36.32952 -76.76080 36912 ft 525 kts 18°
2026-05-07 20:58 36.39233 -76.71452 36903 ft 525 kts 18°
2026-05-07 20:58 36.45559 -76.66783 36911 ft 525 kts 18°
2026-05-07 20:59 36.51805 -76.62164 36931 ft 527 kts 18°
2026-05-07 20:59 36.58104 -76.57499 36926 ft 527 kts 19°
2026-05-07 21:00 36.64441 -76.52794 36917 ft 527 kts 19°
2026-05-07 21:00 36.70730 -76.48115 36968 ft 526 kts 18°
2026-05-07 21:01 36.76976 -76.43461 36936 ft 527 kts 19°
2026-05-07 21:01 36.83265 -76.38767 36927 ft 527 kts 19°
2026-05-07 21:02 36.89549 -76.34066 36917 ft 527 kts 19°
2026-05-07 21:02 36.95837 -76.29354 36926 ft 528 kts 19°
2026-05-07 21:03 37.02132 -76.24627 36924 ft 528 kts 19°
2026-05-07 21:03 37.08427 -76.19890 36905 ft 528 kts 19°
2026-05-07 21:04 37.14721 -76.15145 36968 ft 528 kts 19°
2026-05-07 21:04 37.21023 -76.10385 36909 ft 529 kts 19°
2026-05-07 21:05 37.27328 -76.05613 36894 ft 529 kts 19°
2026-05-07 21:05 37.33635 -76.00829 36899 ft 529 kts 19°
2026-05-07 21:06 37.39944 -75.96035 36905 ft 532 kts 19°
2026-05-07 21:06 37.46278 -75.91211 36911 ft 532 kts 19°
2026-05-07 21:07 37.52614 -75.86376 36907 ft 533 kts 19°
2026-05-07 21:07 37.58968 -75.81580 36906 ft 532 kts 18°
2026-05-07 21:08 37.65338 -75.76830 36893 ft 532 kts 18°
2026-05-07 21:08 37.71699 -75.72066 36895 ft 532 kts 19°
2026-05-07 21:09 37.78059 -75.67278 36963 ft 532 kts 19°
2026-05-07 21:09 37.84427 -75.62467 36907 ft 535 kts 20°
2026-05-07 21:10 37.90657 -75.57195 36912 ft 541 kts 24°
2026-05-07 21:10 37.96817 -75.51692 36897 ft 541 kts 24°
2026-05-07 21:11 38.03006 -75.46261 36923 ft 541 kts 23°
2026-05-07 21:11 38.12227 -75.37890 36893 ft 545 kts 26°
2026-05-07 21:12 38.18279 -75.32089 36899 ft 545 kts 27°
2026-05-07 21:12 38.24344 -75.26313 36912 ft 545 kts 26°
2026-05-07 21:13 38.30384 -75.20596 36908 ft 545 kts 26°
2026-05-07 21:13 38.36466 -75.14833 36908 ft 545 kts 26°
2026-05-07 21:14 38.42539 -75.09060 36956 ft 545 kts 27°
2026-05-07 21:14 38.48579 -75.03152 36894 ft 551 kts 31°
2026-05-07 21:15 38.54336 -74.96635 36895 ft 552 kts 32°
2026-05-07 21:15 38.60230 -74.90416 36950 ft 548 kts 29°
2026-05-07 21:16 38.66202 -74.84351 36903 ft 549 kts 29°
2026-05-07 21:16 38.72147 -74.78180 36903 ft 550 kts 30°
2026-05-07 21:17 38.78012 -74.71858 36896 ft 554 kts 33°
2026-05-07 21:17 38.83692 -74.65144 36935 ft 557 kts 35°
2026-05-07 21:18 38.89376 -74.58393 36907 ft 556 kts 34°
2026-05-07 21:18 38.95089 -74.51711 36895 ft 554 kts 33°
2026-05-07 21:19 39.00948 -74.45315 36922 ft 551 kts 31°
2026-05-07 21:19 39.06872 -74.39052 36901 ft 551 kts 31°
2026-05-07 21:20 39.12778 -74.32728 36850 ft 552 kts 32°
2026-05-07 21:20 39.18646 -74.26363 36955 ft 551 kts 32°
2026-05-07 21:21 39.24513 -74.19979 36886 ft 553 kts 32°
2026-05-07 21:21 39.30386 -74.13578 36882 ft 552 kts 32°
2026-05-07 21:22 39.36254 -74.07171 36877 ft 552 kts 32°
2026-05-07 21:22 39.42108 -74.00769 36881 ft 552 kts 32°
2026-05-07 21:23 39.47920 -73.94389 36878 ft 550 kts 32°
2026-05-07 21:23 39.53757 -73.87967 36869 ft 550 kts 33°
2026-05-07 21:24 39.59621 -73.81499 36879 ft 550 kts 33°
2026-05-07 21:24 39.65414 -73.75096 36873 ft 551 kts 33°
2026-05-07 21:25 39.71239 -73.68642 36877 ft 551 kts 33°
2026-05-07 21:25 39.77062 -73.62174 36856 ft 552 kts 33°
2026-05-07 21:26 39.82896 -73.55680 36883 ft 552 kts 33°
2026-05-07 21:26 39.88737 -73.49172 36881 ft 553 kts 33°
2026-05-07 21:27 39.94581 -73.42661 36940 ft 554 kts 33°
2026-05-07 21:27 40.00450 -73.36105 36882 ft 556 kts 33°
2026-05-07 21:28 40.06311 -73.29536 36828 ft 556 kts 33°
2026-05-07 21:28 40.12179 -73.22946 36615 ft 559 kts 34°
2026-05-07 21:29 40.15130 -73.19624 36014 ft 560 kts 34°
2026-05-07 21:29 40.18084 -73.16287 35375 ft 560 kts 34°
2026-05-07 21:29 40.21034 -73.12951 34659 ft 562 kts 34°
2026-05-07 21:29 40.23996 -73.09602 33942 ft 564 kts 34°
2026-05-07 21:30 40.26972 -73.06234 33077 ft 567 kts 34°
2026-05-07 21:30 40.29961 -73.02849 32277 ft 568 kts 35°
2026-05-07 21:30 40.32953 -72.99455 31469 ft 570 kts 35°
2026-05-07 21:30 40.35957 -72.96042 30594 ft 572 kts 36°
2026-05-07 21:31 40.38963 -72.92621 29864 ft 570 kts 36°
2026-05-07 21:31 40.41899 -72.89270 29175 ft 564 kts 36°
2026-05-07 21:31 40.44845 -72.85904 28491 ft 559 kts 36°
2026-05-07 21:31 40.47761 -72.82570 27842 ft 553 kts 36°
2026-05-07 21:32 40.50651 -72.79264 27249 ft 548 kts 36°
2026-05-07 21:32 40.53511 -72.75990 26591 ft 543 kts 36°
2026-05-07 21:32 40.56341 -72.72748 25950 ft 538 kts 36°
2026-05-07 21:32 40.59156 -72.69520 25291 ft 534 kts 37°
2026-05-07 21:33 40.61938 -72.66325 24649 ft 530 kts 37°
2026-05-07 21:33 40.64705 -72.63144 23997 ft 526 kts 37°
2026-05-07 21:33 40.67432 -72.60005 23344 ft 521 kts 37°
2026-05-07 21:33 40.70142 -72.56904 22647 ft 516 kts 36°
2026-05-07 21:34 40.71987 -72.54877 22379 ft 507 kts 34°
2026-05-07 21:34 40.74650 -72.52024 21773 ft 500 kts 34°
2026-05-07 21:34 40.77340 -72.49149 21157 ft 494 kts 34°
2026-05-07 21:34 40.79979 -72.46289 20536 ft 489 kts 36°
2026-05-07 21:35 40.82474 -72.43259 19979 ft 484 kts 40°
2026-05-07 21:35 40.84824 -72.40120 19417 ft 479 kts 42°
2026-05-07 21:35 40.87118 -72.37023 19048 ft 465 kts 41°
2026-05-07 21:35 40.89410 -72.33970 18181 ft 468 kts 43°
2026-05-07 21:36 40.91530 -72.30716 17408 ft 467 kts 51°
2026-05-07 21:36 40.93232 -72.27110 16848 ft 459 kts 62°
2026-05-07 21:36 40.94598 -72.23329 16321 ft 450 kts 66°
2026-05-07 21:36 40.95833 -72.19566 15781 ft 443 kts 67°
2026-05-07 21:37 40.97045 -72.15839 15187 ft 438 kts 66°
2026-05-07 21:37 40.98269 -72.12167 14585 ft 434 kts 66°
2026-05-07 21:37 40.99510 -72.08538 13980 ft 431 kts 66°
2026-05-07 21:37 41.00760 -72.04948 13316 ft 428 kts 65°
2026-05-07 21:38 41.02002 -72.01400 12684 ft 423 kts 65°
2026-05-07 21:38 41.03229 -71.97893 12092 ft 417 kts 64°
2026-05-07 21:38 41.04437 -71.94433 11494 ft 411 kts 64°
2026-05-07 21:38 41.05720 -71.91090 10949 ft 403 kts 55°
2026-05-07 21:39 41.07384 -71.88205 10669 ft 386 kts 47°
2026-05-07 21:39 41.09087 -71.85533 10371 ft 374 kts 46°
2026-05-07 21:39 41.10745 -71.82952 10065 ft 363 kts 45°
2026-05-07 21:39 41.12344 -71.80451 9979 ft 346 kts 45°
2026-05-07 21:40 41.13856 -71.78068 9955 ft 329 kts 45°
2026-05-07 21:40 41.15289 -71.75797 9923 ft 314 kts 45°
2026-05-07 21:40 41.16675 -71.73596 9679 ft 308 kts 44°
2026-05-07 21:40 41.18040 -71.71428 9344 ft 305 kts 44°
2026-05-07 21:41 41.19388 -71.69282 9039 ft 300 kts 45°
2026-05-07 21:41 41.20702 -71.67185 8620 ft 292 kts 45°
2026-05-07 21:41 41.21989 -71.65130 8160 ft 287 kts 45°
2026-05-07 21:41 41.23242 -71.63124 7875 ft 279 kts 45°
2026-05-07 21:42 41.24472 -71.61156 7637 ft 276 kts 45°
2026-05-07 21:42 41.25695 -71.59198 7431 ft 275 kts 46°
2026-05-07 21:42 41.26915 -71.57245 7210 ft 275 kts 46°
2026-05-07 21:42 41.28130 -71.55295 6993 ft 273 kts 46°
2026-05-07 21:43 41.29336 -71.53354 6782 ft 270 kts 46°
2026-05-07 21:43 41.30491 -71.51467 6682 ft 255 kts 46°
2026-05-07 21:43 41.31570 -71.49681 6440 ft 244 kts 46°
2026-05-07 21:43 41.32621 -71.47938 6077 ft 239 kts 46°
2026-05-07 21:44 41.33654 -71.46224 5649 ft 237 kts 46°
2026-05-07 21:44 41.34683 -71.44528 5195 ft 236 kts 46°
2026-05-07 21:44 41.35717 -71.42842 4767 ft 233 kts 46°
2026-05-07 21:44 41.36743 -71.41189 4343 ft 231 kts 46°
2026-05-07 21:45 41.37773 -71.39542 3884 ft 231 kts 46°
2026-05-07 21:45 41.38786 -71.37924 3451 ft 230 kts 46°
2026-05-07 21:45 41.39825 -71.36262 3081 ft 229 kts 46°
2026-05-07 21:45 41.40823 -71.34662 2709 ft 226 kts 46°
2026-05-07 21:46 41.41838 -71.33040 2232 ft 229 kts 46°
2026-05-07 21:46 41.42883 -71.31396 2103 ft 237 kts 46°
2026-05-07 21:46 41.43946 -71.29737 2022 ft 233 kts 47°
2026-05-07 21:46 41.44990 -71.28112 2005 ft 230 kts 46°
2026-05-07 21:47 41.46030 -71.26484 1999 ft 231 kts 46°
2026-05-07 21:47 41.47077 -71.24854 1996 ft 232 kts 46°
2026-05-07 21:47 41.48288 -71.23501 1985 ft 224 kts 20°
2026-05-07 21:47 41.49783 -71.23150 2002 ft 217 kts 358°
2026-05-07 21:48 41.51300 -71.23154 2001 ft 218 kts 356°
2026-05-07 21:48 41.52818 -71.23173 1994 ft 218 kts 357°
2026-05-07 21:48 41.54275 -71.23449 1961 ft 204 kts 330°
2026-05-07 21:48 41.55372 -71.24546 1985 ft 194 kts 320°
2026-05-07 21:49 41.56450 -71.25628 1989 ft 193 kts 322°
2026-05-07 21:49 41.57526 -71.26709 1999 ft 194 kts 322°
2026-05-07 21:49 41.58605 -71.27772 1998 ft 193 kts 321°
2026-05-07 21:49 41.59662 -71.28865 1995 ft 192 kts 321°
2026-05-07 21:50 41.60684 -71.29947 1987 ft 183 kts 320°
2026-05-07 21:50 41.61645 -71.30969 1970 ft 172 kts 320°
2026-05-07 21:50 41.62587 -71.31972 1986 ft 174 kts 320°
2026-05-07 21:50 41.63531 -71.32977 1995 ft 173 kts 320°
2026-05-07 21:51 41.64478 -71.33984 1872 ft 176 kts 320°
2026-05-07 21:51 41.65409 -71.34973 1648 ft 164 kts 320°
2026-05-07 21:51 41.66264 -71.35881 1437 ft 152 kts 319°
2026-05-07 21:51 41.67075 -71.36745 1280 ft 143 kts 319°
2026-05-07 21:52 41.67830 -71.37547 1057 ft 132 kts 319°
2026-05-07 21:52 41.68537 -71.38271 884 ft 125 kts 320°
2026-05-07 21:52 41.69206 -71.39009 728 ft 124 kts 319°
2026-05-07 21:52 41.69892 -71.39754 576 ft 128 kts 320°
2026-05-07 21:53 41.70591 -71.40502 394 ft 131 kts 320°
2026-05-07 21:53 41.71323 -71.41268 239 ft 138 kts 321°
2026-05-07 21:53 41.72064 -71.42053 70 ft 131 kts 321°
2026-05-07 21:53 41.72663 -71.42686 55 ft 80 kts 321°
2026-05-07 21:54 41.72892 -71.42927 62 ft 27 kts 322°
2026-05-07 21:54 41.73028 -71.43072 62 ft 21 kts 322°
2026-05-07 21:54 41.73105 -71.43158 63 ft 12 kts 305°
2026-05-07 21:54 41.73078 -71.43241 61 ft 10 kts 200°
2026-05-07 21:55 41.73040 -71.43259 60 ft 5 kts 200°
2026-05-07 21:55 41.72987 -71.43285 63 ft 11 kts 200°
2026-05-07 21:55 41.72926 -71.43326 63 ft 9 kts 222°
2026-05-07 21:55 41.72878 -71.43388 62 ft 10 kts 224°
2026-05-07 21:56 41.72836 -71.43444 65 ft 8 kts 225°
2026-05-07 21:56 41.72793 -71.43479 62 ft 7 kts 188°
2026-05-07 21:56 41.72761 -71.43471 62 ft 2 kts 164°
2026-05-07 21:56 41.72746 -71.43466 63 ft 3 kts 164°
2026-05-07 21:57 41.72730 -71.43460 64 ft 1 kts 165°
2026-05-07 21:57 41.72729 -71.43459 64 ft 0 kts 164°